Flag for Germany Weather past 2 weeks in Schwabach, Bavaria, Germany

Now
48 °F

Clear.


Feels Like: 48 °F
Forecast: 40 / 67 °F
Wind: 1 mph from North

Location: Nuernberg

Current Time: May 27, 2015 at 4:55:46 AM

Latest Report: May 27, 2015 at 4:20 AM


Visibility: 10 mi

Pressure: 30.18 "Hg

Humidity: 76%

Dew point: 41 °F

Location of SchwabachLocation

Historic Weather in Schwabach — Graph

°F

Schwabach temperature yesterday

Maximum temperature yesterday: 59 °F (at 11:20 AM)
Minimum temperature yesterday: 50 °F (at 5:20 AM)
Average temperature yesterday: 54 °F

Past Weeks' High & Low Weather Summary

 TemperatureHumidityPressure
High82 °F (May 12, 3:20 PM)100% (May 21, 2:20 AM)30.33 "Hg (May 21, 2:20 AM)
Low37 °F (May 22, 4:50 AM)27% (May 18, 6:20 PM)29.71 "Hg (May 18, 7:20 PM)
Average57 °F64%30.04 "Hg
* Reported May 12 3:20 AM — May 27 3:50 AM, Schwabach, Weather by CustomWeather, © 2015

Note: Actual official high and low records may vary slightly from our data, if they occured in-between our weather recording intervals... More about our weather records

Advertising

Schwabach weather history for previous 24 hours

 ConditionsComfort  
Time TempWeatherWind HumidityBarometerVisibility
3:50 AM
Wed, May 27
48 °FClear.1 mph76%30.18 "Hg10 mi
3:20 AM48 °FClear.3 mph76%30.18 "Hg10 mi
2:50 AM48 °FClear.3 mph76%30.15 "Hg10 mi
2:20 AM48 °FClear.5 mph76%30.15 "Hg10 mi
1:50 AM48 °FPassing clouds.5 mph76%30.15 "HgN/A
1:20 AM50 °FPassing clouds.3 mph71%30.15 "HgN/A
12:50 AM50 °FClear.2 mph71%30.15 "Hg10 mi
12:20 AM50 °FClear.1 mph71%30.15 "Hg10 mi
11:20 PM
Tue, May 26
50 °FClear.2 mph71%30.15 "Hg10 mi
10:50 PM50 °FClear.2 mph76%30.15 "Hg10 mi
10:20 PM50 °FClear.3 mph76%30.15 "Hg10 mi
9:50 PM50 °FSunny.No wind76%30.12 "Hg10 mi
9:20 PM50 °FSunny.2 mph71%30.12 "Hg10 mi
8:50 PM52 °FSunny.3 mph67%30.12 "Hg10 mi
8:20 PM54 °FPartly sunny.3 mph63%30.12 "HgN/A
7:50 PM54 °FPartly sunny.3 mph63%30.09 "HgN/A
7:20 PM54 °FPartly sunny.7 mph58%30.09 "HgN/A
6:50 PM55 °FPartly sunny.6 mph55%30.07 "HgN/A
6:20 PM55 °FPartly sunny.6 mph55%30.07 "HgN/A
5:50 PM55 °FPartly sunny.3 mph55%30.07 "HgN/A
5:20 PM54 °FPartly sunny.7 mph58%30.07 "HgN/A
4:50 PM55 °FPartly sunny.7 mph55%30.07 "HgN/A
4:20 PM55 °FBroken clouds.8 mph63%30.07 "HgN/A
3:50 PM57 °FPartly sunny.6 mph59%30.07 "HgN/A
3:20 PM54 °FPartly sunny.7 mph67%30.07 "HgN/A
2:50 PM55 °FBroken clouds.9 mph59%30.07 "HgN/A
2:20 PM55 °FBroken clouds.7 mph59%30.04 "HgN/A
1:50 PM57 °FBroken clouds.7 mph59%30.04 "HgN/A
1:20 PM57 °FBroken clouds.10 mph59%30.04 "HgN/A
12:50 PM57 °FBroken clouds.5 mph55%30.04 "HgN/A
12:20 PM55 °FBroken clouds.6 mph59%30.04 "HgN/A
11:50 AM57 °FBroken clouds.9 mph51%30.04 "HgN/A
11:20 AM59 °FScattered clouds.6 mph55%30.04 "HgN/A
10:50 AM55 °FScattered clouds.5 mph63%30.01 "HgN/A
10:20 AM55 °FScattered clouds.7 mph67%30.01 "HgN/A
9:50 AM55 °FScattered clouds.6 mph72%30.01 "HgN/A
9:20 AM54 °FScattered clouds.3 mph72%30.01 "HgN/A
8:50 AM54 °FScattered clouds.3 mph77%30.01 "HgN/A
8:20 AM54 °FScattered clouds.3 mph82%29.98 "HgN/A
7:50 AM52 °FBroken clouds.2 mph88%29.98 "HgN/A
7:20 AM52 °FBroken clouds.3 mph88%29.98 "HgN/A
6:50 AM50 °FBroken clouds.3 mph94%29.98 "HgN/A
6:20 AM50 °FPartly sunny.3 mph94%29.95 "HgN/A
5:50 AM50 °FPartly cloudy.2 mph94%29.95 "HgN/A
5:20 AM50 °FPartly cloudy.3 mph100%29.95 "HgN/A
4:50 AM52 °FPassing clouds.5 mph94%29.95 "HgN/A
4:20 AM52 °FFog.3 mph94%29.92 "Hg5 mi
Weather by CustomWeather, © 2015

See weather overviewHow to use our weather pages